Terminal Aerodrome Forecast
Issued by NWS Sterling, VA

Home | Current Version | Previous Version | Text Only | Print | Product List | Glossary On
Versions: 1 2 3 4 5 6 7 8 9 10 11 12 13 14 15 16 17 18 19 20 21 22
000
FTUS41 KLWX 292051 AAA
TAFDCA
TAF AMD
KDCA 292051Z 2921/3018 25011G17KT P6SM SCT040 BKN250
     FM292200 23011G17KT P6SM VCTS SCT040CB BKN250
     FM300000 26007KT P6SM VCTS BKN040CB
     FM300300 35004KT P6SM BKN040
     FM300500 06004KT P6SM BKN045
     FM301100 09006KT P6SM SCT015 BKN025
     FM301600 13007KT P6SM BKN040=

USA.gov is the U.S. government's official web portal to all federal, state and local government web resources and services.